Zurück zum Katalog

COSMOS 1275 DEB

AktivPO
NORAD 14739·DEBRIS·🇷🇺 Russia

Gestartet Jun 4, 1981 von Plesetsk Cosmodrome

Loading…

Nächste Überflüge (nächste 24 Stunden)

TLE

AktuellSource: Space-Track

Epoche: Sep 14, 2026, 01:25 UTC

1 14739U 81053JU  26257.05915213  .00001210  00000-0  74958-3 0  9999
2 14739  83.0057 133.5818 0056624 304.9283  54.6576 14.03685039274421

Verfolge COSMOS 1275 DEB in Echtzeit mit AllMySat

Download on the App Store